Location: Basse Occidentale du Courleau
(48.3833°N, 4.8333°W)
Time: 09:30:50
(UTC+00:00)

ATLAS 5 CENTAUR R/B - Pass Details

Date: 05 July 2020
Orbit: 534 x 1124 km, 63.4° (Epoch: 03 August)

Event Time Altitude Azimuth Distance (km) Brightness Sun altitude
Rises 21:03:56 0° 204° (SSW) 2,692 4.6 -6.0°
Reaches altitude 10° 21:06:05 10° 198° (SSW) 1,834 3.7 -6.3°
Maximum altitude 21:10:01 49° 123° (ESE) 765 1.7 -6.8°
Drops below altitude 10° 21:14:27 10° 49° (NE) 2,065 4.2 -7.3°
Sets 21:16:59 0° 44° (NE) 3,073 5.2 -7.6°
